Tracking 29528 objects as of 13-Sep-2024
HD Live streaming from Space Station
objects crossing your sky now

STARLINK-3927

Track STARLINK-3927 now!
10-day predictions
STARLINK-3927 is classified as:


NORAD ID: 52569
Int'l Code: 2022-051AN
Perigee: 545.9 km
Apogee: 547.7 km
Inclination: 53.2 °
Period: 95.4 minutes
Semi major axis: 6917 km
RCS: Unknown
Launch date: May 13, 2022
Source: United States (US)
Launch site: AIR FORCE WESTERN TEST RANGE (AFWTR)
Your satellite tracking list
Your tracking list is empty




NASA's NSSDC Master Catalog

Two Line Element Set (TLE):
1 52569U 22051AN  24256.66385412  .00013819  00000-0  88393-3 0  9997
2 52569  53.2154  36.8579 0001286  90.1365 269.9775 15.08868105129603
Source of the keplerian elements: AFSPC